Flag for Mongolia Weather past 2 weeks in Ulaanbaatar, Mongolia

Now
-24 °F

Clear.


Feels Like: -24 °F
Forecast: -24 / 1 °F
Wind: 1 mph from North

Location: Ulan-Bator

Current Time: Jan 26, 2015 at 3:05:08 AM

Latest Report: Jan 26, 2015 at 2:00 AM


Visibility: 10 mi

Pressure: 30.51 "Hg

Humidity: 68%

Dew point: -31 °F

Location of UlaanbaatarLocation

Historic Weather in Ulaanbaatar — Graph

°F

Ulaanbaatar temperature yesterday

Maximum temperature yesterday: 7 °F (at 12:30 AM)
Minimum temperature yesterday: -13 °F (at 10:00 PM)
Average temperature yesterday: 0 °F

Past Weeks' High & Low Weather Summary

 TemperatureHumidityPressure
High72 °F (Jan 14, 8:00 AM)86% (Jan 22, 7:00 PM)30.51 "Hg (Jan 22, 7:00 PM)
Low-24 °F (Jan 26, 2:00 AM)3% (Jan 14, 8:00 AM)29.59 "Hg (Jan 22, 10:00 AM)
Average0 °F73%30.06 "Hg
* Reported Jan 11 2:00 AM — Jan 26 2:00 AM, Ulaanbaatar, Weather by CustomWeather, © 2014

Note: Actual official high and low records may vary slightly from our data, if they occured in-between our weather recording intervals... More about our weather records

Advertising

Ulaanbaatar weather history for previous 24 hours

 ConditionsComfort  
Time TempWeatherWind HumidityBarometerVisibility
2:00 AM
Jan 26
-24 °FClear.1 mph68%30.51 "Hg10 mi
1:00 AM-17 °FClear.1 mph69%30.51 "Hg10 mi
12:30 AM-18 °FClear.6 mph69%30.48 "Hg10 mi
12:00 AM-13 °FPassing clouds.8 mph63%30.48 "HgN/A
11:30 PM
Jan 25
-13 °FClear.6 mph69%30.48 "Hg10 mi
11:00 PM-13 °FClear.8 mph69%30.48 "Hg10 mi
10:30 PM-13 °FClear.3 mph69%30.48 "Hg10 mi
10:00 PM-13 °FClear.8 mph76%30.45 "Hg10 mi
9:30 PM-11 °FClear.8 mph70%30.45 "Hg10 mi
9:00 PM-11 °FClear.6 mph76%30.42 "Hg10 mi
8:30 PM-9 °FClear.8 mph77%30.42 "Hg10 mi
8:00 PM-8 °FClear.13 mph70%30.39 "Hg10 mi
7:30 PM-6 °FClear.13 mph70%30.39 "Hg10 mi
7:00 PM-4 °FClear.15 mph65%30.36 "Hg10 mi
6:30 PM-6 °FSunny.13 mph70%30.33 "Hg10 mi
6:00 PM-4 °FPassing clouds.13 mph71%30.30 "HgN/A
5:30 PM-2 °FPassing clouds.20 mph71%30.27 "HgN/A
5:00 PM0 °FPassing clouds.15 mph65%30.24 "HgN/A
4:00 PM1 °FPassing clouds.15 mph65%30.21 "HgN/A
3:30 PM3 °FPassing clouds.13 mph60%30.21 "HgN/A
3:00 PM3 °FPassing clouds.17 mph60%30.18 "HgN/A
2:30 PM3 °FPassing clouds.17 mph66%30.18 "HgN/A
2:00 PM5 °FPassing clouds.20 mph60%30.15 "HgN/A
1:30 PM5 °FPassing clouds.15 mph60%30.15 "HgN/A
1:00 PM5 °FPassing clouds.20 mph60%30.15 "HgN/A
12:30 PM3 °FPassing clouds.20 mph55%30.15 "HgN/A
12:00 PM5 °FPassing clouds.17 mph60%30.12 "HgN/A
11:30 AM3 °FPassing clouds.10 mph72%30.12 "HgN/A
11:00 AM3 °FScattered clouds.10 mph72%30.12 "HgN/A
10:30 AM3 °FScattered clouds.10 mph72%30.09 "HgN/A
10:00 AM3 °FPartly sunny.10 mph78%30.09 "HgN/A
9:30 AM3 °FPartly sunny.10 mph78%30.07 "HgN/A
9:00 AM5 °FPassing clouds.10 mph72%30.07 "HgN/A
8:30 AM5 °FPassing clouds.10 mph72%30.04 "HgN/A
8:00 AM5 °FPassing clouds.8 mph78%30.04 "HgN/A
7:30 AM5 °FPassing clouds.8 mph78%30.01 "HgN/A
7:00 AM7 °FPassing clouds.10 mph72%30.01 "HgN/A
6:30 AM7 °FPassing clouds.10 mph72%29.98 "HgN/A
6:00 AM5 °FPassing clouds.3 mph78%29.98 "Hg5 mi
5:30 AM1 °FPassing clouds.1 mph78%29.98 "Hg5 mi
5:00 AM0 °FPassing clouds.3 mph78%29.95 "Hg5 mi
4:30 AM1 °FPassing clouds.3 mph78%29.98 "Hg5 mi
4:00 AM1 °FPassing clouds.3 mph85%29.98 "Hg5 mi
3:30 AM5 °FPassing clouds.1 mph78%29.95 "Hg5 mi
3:00 AM5 °FPassing clouds.No wind78%29.95 "Hg4 mi
Weather by CustomWeather, © 2014

See weather overviewHow to use our weather pages